Grand Canyon, AZ

2:51 PM MST on May 29, 2017 (GMT -0700)
Grand Canyon National Park

Weather History for KGCN - July, 2014

Change the Weather History Date:

Monday, July 28, 2014

  Actual Average Record
Temperature  
Mean Temperature 65 °F -  
Max Temperature 75 °F 81 °F 93 °F (2016)
Min Temperature 55 °F 49 °F 37 °F (1986)
Growing Degree Days 15 (Base 50)    
Moisture  
Dew Point 53 °F    
Average Humidity 65    
Maximum Humidity 96    
Minimum Humidity 41    
Precipitation  
Precipitation 0.00 in - - ()
Sea Level Pressure  
Sea Level Pressure 30.17 in    
Wind  
Wind Speed 4 mph (SSE)    
Max Wind Speed 15 mph    
Max Gust Speed 25 mph    
Visibility 10 miles    
Events Thunderstorm    
Averages and records for this station are not official NWS values.
T = Trace of Precipitation, MM = Missing Value Source: NWS Daily Summary

Daily Weather History Graph

Daily Weather History Graph

Search for Another Location

Airport or City:

Trip Planner

Search our weather history database for the weather conditions in past years. The results will help you decide how hot, cold, wet, or windy it might be!

Date:

Astronomy

Jul. 28, 2014 Rise Set
Actual Time 5:33 AM MST 7:36 PM MST
Civil Twilight 5:04 AM MST 8:05 PM MST
Nautical Twilight 4:29 AM MST 8:39 PM MST
Astronomical Twilight 3:52 AM MST 9:17 PM MST
Moon 7:12 AM MST (7/28) 8:26 PM MST (7/28)
Length of Visible Light 15h 00m
Length of Day
14h 03m
Waxing Crescent, 3% of the Moon is Illuminated
Jul 28
Waxing Crescent
Aug 3
First Quarter
Aug 10
Full
Aug 17
Last Quarter
Aug 25
New

Hourly Weather History & Observations

Time (MST) Temp. Dew Point Humidity Pressure Visibility Wind Dir Wind Speed Gust Speed Precip Events Conditions
12:54 AM 60.1 °F 57.9 °F 93% 30.11 in 10.0 mi Calm Calm - 0.00 in   Overcast
1:54 AM 60.1 °F 57.0 °F 90% 30.09 in 10.0 mi East 4.6 mph - N/A   Clear
2:54 AM 59.0 °F 55.9 °F 90% 30.08 in 10.0 mi Calm Calm - N/A   Clear
3:54 AM 59.0 °F 55.0 °F 87% 30.06 in 10.0 mi East 6.9 mph - N/A   Clear
4:54 AM 59.0 °F 55.0 °F 87% 30.08 in 10.0 mi Calm Calm - N/A   Clear
5:54 AM 55.0 °F 54.0 °F 96% 30.15 in 9.0 mi Calm Calm - N/A   Clear
6:54 AM 57.0 °F 55.0 °F 93% 30.17 in 10.0 mi Calm Calm - N/A   Clear
7:54 AM 66.0 °F 55.9 °F 70% 30.17 in 10.0 mi East 4.6 mph - N/A   Clear
8:54 AM 71.1 °F 54.0 °F 55% 30.17 in 10.0 mi North - - N/A   Clear
9:54 AM 73.0 °F 52.0 °F 48% 30.16 in 10.0 mi ESE 8.1 mph - N/A   Clear
10:54 AM 75.0 °F 53.1 °F 46% 30.15 in 10.0 mi North - - N/A   Partly Cloudy
11:54 AM 75.0 °F 52.0 °F 44% 30.14 in 10.0 mi South 6.9 mph - N/A   Partly Cloudy
1:12 PM 75.9 °F 52.0 °F 43% 30.40 in 10.0 mi Calm Calm - N/A Thunderstorm Clear
1:54 PM 75.0 °F 53.1 °F 46% 30.10 in 10.0 mi SSE 15.0 mph 21.9 mph N/A Thunderstorm Mostly Cloudy
2:08 PM 73.9 °F 53.1 °F 48% 30.38 in 10.0 mi SE 10.4 mph 19.6 mph N/A   Mostly Cloudy
2:16 PM 75.0 °F 53.1 °F 46% 30.38 in 10.0 mi South 9.2 mph - N/A Thunderstorm Thunderstorm
2:44 PM 75.9 °F 52.0 °F 43% 30.39 in 10.0 mi South 13.8 mph 19.6 mph N/A Thunderstorm Scattered Clouds
2:54 PM 73.0 °F 53.1 °F 49% 30.13 in 10.0 mi WSW 13.8 mph 25.3 mph N/A Thunderstorm Scattered Clouds
3:02 PM 69.1 °F 54.0 °F 58% 30.41 in 10.0 mi WSW 11.5 mph 25.3 mph N/A Thunderstorm Mostly Cloudy
3:54 PM 66.9 °F 54.0 °F 63% 30.15 in 10.0 mi WNW 8.1 mph - N/A Thunderstorm Partly Cloudy
4:54 PM 72.0 °F 52.0 °F 49% 30.10 in 10.0 mi Variable 3.5 mph - N/A Thunderstorm Clear
5:54 PM 73.0 °F 48.9 °F 42% 30.10 in 10.0 mi NW 5.8 mph - N/A   Partly Cloudy
6:54 PM 73.0 °F 48.0 °F 41% 30.09 in 10.0 mi WNW 5.8 mph - N/A   Partly Cloudy
7:54 PM 66.9 °F 52.0 °F 59% 30.09 in 10.0 mi Calm Calm - N/A   Clear
8:54 PM 61.0 °F 54.0 °F 78% 30.12 in 10.0 mi Calm Calm - N/A   Partly Cloudy
9:54 PM 57.0 °F 53.1 °F 87% 30.13 in 10.0 mi NE 4.6 mph - N/A   Partly Cloudy
10:54 PM 57.9 °F 52.0 °F 81% 30.11 in 10.0 mi Calm Calm - N/A   Clear
11:54 PM 57.9 °F 53.1 °F 84% 30.10 in 10.0 mi Calm Calm - N/A   Partly Cloudy